DW3072 Weather Reports


Display with metric or nautical units.
time (UTC)temp
F
wind
direction
speed
MPH
gust
MPH
rain 1hr
in
rain 24hr
in
rain mn
in
humidity
%
barometer
mb
20260906050557 60 242 0.0 0.0 0.00 0.00 0.00 94 1012.8
20260906045038 60 242 0.0 0.0 0.00 0.00 0.00 93 1012.9
20260906043527 60 242 0.0 1.0 0.00 0.00 0.00 93 1013.0
20260906042102 60 242 0.0 0.0 0.00 0.00 0.00 93 1013.0
20260906040548 60 242 0.0 0.0 0.00 0.00 0.00 92 1012.8
20260906035036 60 242 0.0 0.0 0.00 0.00 0.00 92 1012.7
20260906033540 61 242 0.0 1.0 0.00 0.00 0.00 92 1012.7
20260906032029 61 242 0.0 0.0 0.00 0.00 0.00 92 1012.6
20260906030608 61 242 0.0 0.0 0.00 0.00 0.00 92 1012.4
20260906025029 62 242 0.0 1.0 0.00 0.00 0.00 91 1012.4
20260906023536 62 242 0.0 2.0 0.00 0.00 0.00 91 1012.0
20260906022044 62 153 0.0 0.0 0.00 0.00 0.00 91 1012.1
20260906020553 62 153 0.0 0.0 0.00 0.00 0.00 90 1012.2
20260906015036 63 153 0.0 0.0 0.00 0.00 0.00 89 1012.2
20260906013544 63 153 0.0 0.0 0.00 0.00 0.00 89 1012.3
20260906012033 63 153 0.0 0.0 0.00 0.00 0.00 88 1012.2
20260906010545 64 153 0.0 0.0 0.00 0.00 0.00 87 1011.8
20260906005049 64 153 0.0 0.0 0.00 0.00 0.00 86 1011.8
20260906003557 65 153 0.0 0.0 0.00 0.00 0.00 86 1011.5
20260906002052 66 153 0.0 0.0 0.00 0.00 0.00 85 1011.4
20260906000603 67 153 0.0 0.0 0.00 0.00 0.00 83 1011.2
20260905235042 67 153 0.0 0.0 0.00 0.00 0.00 82 1011.1
20260905233550 68 153 0.0 0.0 0.00 0.00 0.00 81 1011.0
20260905232057 69 153 0.0 0.0 0.00 0.00 0.00 79 1010.8
20260905230547 71 153 0.0 0.0 0.00 0.00 0.00 76 1010.9
20260905225049 72 153 0.0 0.0 0.00 0.00 0.00 75 1010.8
20260905223538 74 153 0.0 0.0 0.00 0.00 0.00 71 1010.8
20260905222029 75 153 0.0 4.0 0.00 0.00 0.00 65 1010.7
20260905220539 75 113 2.0 4.0 0.00 0.00 0.00 62 1010.5
20260905215039 75 151 1.0 3.0 0.00 0.00 0.00 65 1010.2
20260905213528 76 138 0.0 2.0 0.00 0.00 0.00 70 1010.2
20260905212033 76 174 2.0 3.0 0.00 0.00 0.00 61 1010.1
20260905210544 77 175 1.0 4.0 0.00 0.00 0.00 60 1010.0
20260905205103 77 103 1.0 3.0 0.00 0.00 0.00 61 1010.1
20260905203530 77 269 0.0 8.0 0.00 0.00 0.00 59 1009.9
20260905202041 77 32 0.0 2.0 0.00 0.00 0.00 61 1010.0
20260905200551 77 31 1.0 3.0 0.00 0.00 0.00 60 1010.0
20260905195029 77 273 0.0 3.0 0.00 0.00 0.00 59 1010.1
20260905193541 78 139 0.0 4.0 0.00 0.00 0.00 61 1010.1
20260905192029 78 164 2.0 4.0 0.00 0.00 0.00 57 1010.1
20260905190538 77 169 0.0 3.0 0.00 0.00 0.00 60 1010.1
20260905185040 78 129 1.0 6.0 0.00 0.00 0.00 59 1010.3
20260905183530 77 117 2.0 4.0 0.00 0.00 0.00 58 1010.5
20260905182036 78 178 2.0 9.0 0.00 0.00 0.00 58 1010.6
20260905180545 77 233 1.0 3.0 0.00 0.00 0.00 60 1010.6
20260905175043 76 58 1.0 4.0 0.00 0.00 0.00 62 1010.5
20260905173534 77 94 1.0 3.0 0.00 0.00 0.00 59 1010.6
20260905172038 76 188 1.0 6.0 0.00 0.00 0.00 67 1010.7
20260905170545 75 185 0.0 4.0 0.00 0.00 0.00 66 1011.0
20260905165032 76 145 1.0 3.0 0.00 0.00 0.00 62 1010.9
20260905163536 76 67 2.0 5.0 0.00 0.00 0.00 61 1011.3
20260905162028 76 82 0.0 5.0 0.00 0.00 0.00 63 1011.2
20260905160536 76 271 3.0 6.0 0.00 0.00 0.00 61 1011.3
20260905155036 76 4 0.0 4.0 0.00 0.00 0.00 63 1011.2
20260905153526 77 119 2.0 4.0 0.00 0.00 0.00 61 1011.3
20260905152101 77 169 1.0 5.0 0.00 0.00 0.00 62 1011.1
20260905150547 76 189 2.0 6.0 0.00 0.00 0.00 64 1011.2
20260905145029 75 192 2.0 8.0 0.00 0.00 0.00 65 1011.2
20260905143537 75 224 1.0 4.0 0.00 0.00 0.00 68 1011.0
20260905142028 74 120 1.0 6.0 0.00 0.00 0.00 67 1011.1
20260905140607 74 209 1.0 3.0 0.00 0.00 0.00 70 1011.1
20260905135030 73 138 1.0 4.0 0.00 0.00 0.00 71 1011.1
20260905133544 73 106 0.0 3.0 0.00 0.00 0.00 75 1011.1
20260905132034 73 131 0.0 3.0 0.00 0.00 0.00 76 1011.1
20260905130542 72 97 1.0 2.0 0.00 0.00 0.00 78 1011.1
20260905125100 69 344 0.0 2.0 0.00 0.00 0.00 83 1011.3
20260905123547 66 134 0.0 1.0 0.00 0.00 0.00 88 1011.3
20260905122037 65 125 0.0 1.0 0.00 0.00 0.00 92 1011.6
20260905120546 64 131 0.0 1.0 0.00 0.00 0.00 94 1011.6
20260905115027 63 124 0.0 0.0 0.00 0.00 0.00 93 1011.4
20260905113538 63 124 0.0 0.0 0.00 0.00 0.00 92 1011.4
20260905112027 63 124 0.0 0.0 0.00 0.00 0.00 91 1011.3
20260905110536 63 124 0.0 0.0 0.00 0.00 0.00 90 1011.2
20260905105034 64 124 0.0 0.0 0.00 0.00 0.00 90 1010.8
20260905103543 64 124 0.0 0.0 0.00 0.00 0.00 89 1010.7
20260905102052 65 124 0.0 0.0 0.00 0.00 0.00 89 1010.5
20260905100537 66 124 0.0 0.0 0.00 0.00 0.00 88 1010.3
20260905095039 66 124 0.0 1.0 0.00 0.00 0.00 88 1010.2
20260905093548 67 116 1.0 3.0 0.00 0.00 0.00 88 1010.1
20260905092054 67 126 0.0 0.0 0.00 0.00 0.00 88 1010.1
20260905090541 67 77 0.0 0.0 0.00 0.00 0.00 90 1010.1
20260905085105 67 77 0.0 1.0 0.00 0.00 0.00 89 1010.0
20260905083554 67 27 0.0 0.0 0.00 0.00 0.00 91 1009.9
20260905082044 67 27 0.0 2.0 0.00 0.00 0.00 92 1010.1
20260905080551 67 117 0.0 1.0 0.00 0.00 0.00 92 1010.4
20260905075034 68 117 0.0 0.0 0.00 0.00 0.00 93 1010.2
20260905073543 68 117 0.0 0.0 0.00 0.00 0.00 94 1010.1
20260905072033 68 117 0.0 0.0 0.00 0.00 0.00 94 1010.2
20260905070539 68 117 0.0 0.0 0.00 0.00 0.00 94 1010.4
20260905065041 68 117 0.0 0.0 0.00 0.00 0.00 94 1010.4
20260905063530 68 117 0.0 0.0 0.00 0.00 0.00 94 1010.5
20260905062039 68 117 0.0 0.0 0.00 0.00 0.00 94 1010.6
20260905060548 68 117 0.0 0.0 0.00 0.00 0.00 94 1010.7
20260905055030 68 117 0.0 0.0 0.00 0.01 0.00 94 1010.8
20260905053538 68 117 0.0 0.0 0.00 0.01 0.00 94 1010.9
20260905052028 68 117 0.0 0.0 0.00 0.01 0.00 94 1011.0